Year,Month,Day,Hour,Minute,Value (Times are PST for temperature in C)
2005,09,25,00,00,10.60
2005,09,25,00,01,10.60
2005,09,25,00,02,10.60
2005,09,25,00,03,10.60
2005,09,25,00,04,10.50
2005,09,25,00,05,10.40
2005,09,25,00,06,10.40
2005,09,25,00,07,10.40
2005,09,25,00,08,10.40
2005,09,25,00,09,10.40
2005,09,25,00,10,10.40
2005,09,25,00,11,10.40
2005,09,25,00,12,10.40
2005,09,25,00,13,10.40
2005,09,25,00,14,10.40
2005,09,25,00,15,10.30
2005,09,25,00,16,10.30
2005,09,25,00,17,10.30
2005,09,25,00,18,10.30
2005,09,25,00,19,10.30
2005,09,25,00,20,10.20
2005,09,25,00,21,10.20
2005,09,25,00,22,10.20
2005,09,25,00,23,10.20
2005,09,25,00,24,10.20
2005,09,25,00,25,10.20
2005,09,25,00,26,10.20
2005,09,25,00,27,10.10
2005,09,25,00,28,10.10
2005,09,25,00,29,10.10
2005,09,25,00,30,10.10
2005,09,25,00,31,10.10
2005,09,25,00,32,10.10
2005,09,25,00,33,10.10
2005,09,25,00,34,10.10
2005,09,25,00,35,10.10
2005,09,25,00,36,10.10
2005,09,25,00,37,10.10
2005,09,25,00,38,10.00
2005,09,25,00,39,9.90
2005,09,25,00,40,9.90
2005,09,25,00,41,9.90
2005,09,25,00,42,9.90
2005,09,25,00,43,9.90
2005,09,25,00,44,9.90
2005,09,25,00,45,9.90
2005,09,25,00,46,9.90
2005,09,25,00,47,9.90
2005,09,25,00,48,9.90
2005,09,25,00,49,9.90
2005,09,25,00,50,9.90
2005,09,25,00,51,9.80
2005,09,25,00,52,9.80
2005,09,25,00,53,9.80
2005,09,25,00,54,9.80
2005,09,25,00,55,9.80
2005,09,25,00,56,9.70
2005,09,25,00,57,9.70
2005,09,25,00,58,9.70
2005,09,25,00,59,9.70
2005,09,25,01,00,9.70
2005,09,25,01,01,9.70
2005,09,25,01,02,9.70
2005,09,25,01,03,9.70
2005,09,25,01,04,9.70
2005,09,25,01,05,9.70
2005,09,25,01,06,9.70
2005,09,25,01,07,9.70
2005,09,25,01,08,9.70
2005,09,25,01,09,9.60
2005,09,25,01,10,9.60
2005,09,25,01,11,9.60
2005,09,25,01,12,9.60
2005,09,25,01,13,9.50
2005,09,25,01,14,9.50
2005,09,25,01,15,9.50
2005,09,25,01,16,9.50
2005,09,25,01,17,9.50
2005,09,25,01,18,9.50
2005,09,25,01,19,9.50
2005,09,25,01,20,9.50
2005,09,25,01,21,9.50
2005,09,25,01,22,9.40
2005,09,25,01,23,9.40
2005,09,25,01,24,9.40
2005,09,25,01,25,9.40
2005,09,25,01,26,9.40
2005,09,25,01,27,9.40
2005,09,25,01,28,9.40
2005,09,25,01,29,9.40
2005,09,25,01,30,9.40
2005,09,25,01,31,9.40
2005,09,25,01,32,9.40
2005,09,25,01,33,9.40
2005,09,25,01,34,9.40
2005,09,25,01,35,9.40
2005,09,25,01,36,9.30
2005,09,25,01,37,9.30
2005,09,25,01,38,9.30
2005,09,25,01,39,9.30
2005,09,25,01,40,9.30
2005,09,25,01,41,9.30
2005,09,25,01,42,9.30
2005,09,25,01,43,9.30
2005,09,25,01,44,9.30
2005,09,25,01,45,9.20
2005,09,25,01,46,9.20
2005,09,25,01,47,9.20
2005,09,25,01,48,9.20
2005,09,25,01,49,9.20
2005,09,25,01,50,9.20
2005,09,25,01,51,9.20
2005,09,25,01,52,9.20
2005,09,25,01,53,9.20
2005,09,25,01,54,9.20
2005,09,25,01,55,9.20
2005,09,25,01,56,9.20
2005,09,25,01,57,9.20
2005,09,25,01,58,9.20
2005,09,25,01,59,9.20
2005,09,25,02,00,9.20
2005,09,25,02,01,9.20
2005,09,25,02,02,9.20
2005,09,25,02,03,9.20
2005,09,25,02,04,9.20
2005,09,25,02,05,9.20
2005,09,25,02,06,9.20
2005,09,25,02,07,9.20
2005,09,25,02,08,9.20
2005,09,25,02,09,9.20
2005,09,25,02,10,9.20
2005,09,25,02,11,9.20
2005,09,25,02,12,9.20
2005,09,25,02,13,9.20
2005,09,25,02,14,9.20
2005,09,25,02,15,9.20
2005,09,25,02,16,9.20
2005,09,25,02,17,9.20
2005,09,25,02,18,9.20
2005,09,25,02,19,9.20
2005,09,25,02,20,9.20
2005,09,25,02,21,9.20
2005,09,25,02,22,9.20
2005,09,25,02,23,9.20
2005,09,25,02,24,9.20
2005,09,25,02,25,9.20
2005,09,25,02,26,9.20
2005,09,25,02,27,9.20
2005,09,25,02,28,9.20
2005,09,25,02,29,9.20
2005,09,25,02,30,9.20
2005,09,25,02,31,9.20
2005,09,25,02,32,9.20
2005,09,25,02,33,9.20
2005,09,25,02,34,9.20
2005,09,25,02,35,9.20
2005,09,25,02,36,9.20
2005,09,25,02,37,9.20
2005,09,25,02,38,9.20
2005,09,25,02,39,9.20
2005,09,25,02,40,9.20
2005,09,25,02,41,9.20
2005,09,25,02,42,9.20
2005,09,25,02,43,9.20
2005,09,25,02,44,9.20
2005,09,25,02,45,9.20
2005,09,25,02,46,9.20
2005,09,25,02,47,9.20
2005,09,25,02,48,9.20
2005,09,25,02,49,9.20
2005,09,25,02,50,9.30
2005,09,25,02,51,9.30
2005,09,25,02,52,9.30
2005,09,25,02,53,9.30
2005,09,25,02,54,9.30
2005,09,25,02,55,9.30
2005,09,25,02,56,9.30
2005,09,25,02,57,9.30
2005,09,25,02,58,9.30
2005,09,25,02,59,9.30
2005,09,25,03,00,9.30
2005,09,25,03,01,9.30
2005,09,25,03,02,9.30
2005,09,25,03,03,9.20
2005,09,25,03,04,9.20
2005,09,25,03,05,9.20
2005,09,25,03,06,9.20
2005,09,25,03,07,9.20
2005,09,25,03,08,9.20
2005,09,25,03,09,9.20
2005,09,25,03,10,9.20
2005,09,25,03,11,9.10
2005,09,25,03,12,9.10
2005,09,25,03,13,9.10
2005,09,25,03,14,9.20
2005,09,25,03,15,9.20
2005,09,25,03,16,9.10
2005,09,25,03,17,9.10
2005,09,25,03,18,9.10
2005,09,25,03,19,9.10
2005,09,25,03,20,9.10
2005,09,25,03,21,9.10
2005,09,25,03,22,9.10
2005,09,25,03,23,9.10
2005,09,25,03,24,9.10
2005,09,25,03,25,9.20
2005,09,25,03,26,9.20
2005,09,25,03,27,9.20
2005,09,25,03,28,9.20
2005,09,25,03,29,9.20
2005,09,25,03,30,9.20
2005,09,25,03,31,9.20
2005,09,25,03,32,9.30
2005,09,25,03,33,9.30
2005,09,25,03,34,9.40
2005,09,25,03,35,9.40
2005,09,25,03,36,9.40
2005,09,25,03,37,9.40
2005,09,25,03,38,9.40
2005,09,25,03,39,9.30
2005,09,25,03,40,9.20
2005,09,25,03,41,9.20
2005,09,25,03,42,9.20
2005,09,25,03,43,9.20
2005,09,25,03,44,9.20
2005,09,25,03,45,9.20
2005,09,25,03,46,9.20
2005,09,25,03,47,9.20
2005,09,25,03,48,9.20
2005,09,25,03,49,9.20
2005,09,25,03,50,9.10
2005,09,25,03,51,9.10
2005,09,25,03,52,9.10
2005,09,25,03,53,9.00
2005,09,25,03,54,9.00
2005,09,25,03,55,9.00
2005,09,25,03,56,8.90
2005,09,25,03,57,8.90
2005,09,25,03,58,8.90
2005,09,25,03,59,8.90
2005,09,25,04,00,8.80
2005,09,25,04,01,8.80
2005,09,25,04,02,8.80
2005,09,25,04,03,8.80
2005,09,25,04,04,8.80
2005,09,25,04,05,8.80
2005,09,25,04,06,8.80
2005,09,25,04,07,8.80
2005,09,25,04,08,8.90
2005,09,25,04,09,8.90
2005,09,25,04,10,9.00
2005,09,25,04,11,9.00
2005,09,25,04,12,9.00
2005,09,25,04,13,9.00
2005,09,25,04,14,9.00
2005,09,25,04,15,9.00
2005,09,25,04,16,9.00
2005,09,25,04,17,8.90
2005,09,25,04,18,8.90
2005,09,25,04,19,8.90
2005,09,25,04,20,8.90
2005,09,25,04,21,8.90
2005,09,25,04,22,8.90
2005,09,25,04,23,8.80
2005,09,25,04,24,8.80
2005,09,25,04,25,8.80
2005,09,25,04,26,8.80
2005,09,25,04,27,8.80
2005,09,25,04,28,8.90
2005,09,25,04,29,8.90
2005,09,25,04,30,8.90
2005,09,25,04,31,9.00
2005,09,25,04,32,9.00
2005,09,25,04,33,9.00
2005,09,25,04,34,9.00
2005,09,25,04,35,9.00
2005,09,25,04,36,9.00
2005,09,25,04,37,9.00
2005,09,25,04,38,9.10
2005,09,25,04,39,9.10
2005,09,25,04,40,9.10
2005,09,25,04,41,9.00
2005,09,25,04,42,9.00
2005,09,25,04,43,9.00
2005,09,25,04,44,9.00
2005,09,25,04,45,9.00
2005,09,25,04,46,9.10
2005,09,25,04,47,9.10
2005,09,25,04,48,9.10
2005,09,25,04,49,9.10
2005,09,25,04,50,9.00
2005,09,25,04,51,9.10
2005,09,25,04,52,9.10
2005,09,25,04,53,9.10
2005,09,25,04,54,9.00
2005,09,25,04,55,9.00
2005,09,25,04,56,8.90
2005,09,25,04,57,8.90
2005,09,25,04,58,8.80
2005,09,25,04,59,8.80
2005,09,25,05,00,8.70
2005,09,25,05,01,8.60
2005,09,25,05,02,8.60
2005,09,25,05,03,8.50
2005,09,25,05,04,8.50
2005,09,25,05,05,8.40
2005,09,25,05,06,8.40
2005,09,25,05,07,8.40
2005,09,25,05,08,8.30
2005,09,25,05,09,8.30
2005,09,25,05,10,8.30
2005,09,25,05,11,8.40
2005,09,25,05,12,8.40
2005,09,25,05,13,8.40
2005,09,25,05,14,8.40
2005,09,25,05,15,8.40
2005,09,25,05,16,8.40
2005,09,25,05,17,8.40
2005,09,25,05,18,8.40
2005,09,25,05,19,8.40
2005,09,25,05,20,8.40
2005,09,25,05,21,8.40
2005,09,25,05,22,8.40
2005,09,25,05,23,8.40
2005,09,25,05,24,8.50
2005,09,25,05,25,8.50
2005,09,25,05,26,8.50
2005,09,25,05,27,8.50
2005,09,25,05,28,8.50
2005,09,25,05,29,8.50
2005,09,25,05,30,8.40
2005,09,25,05,31,8.40
2005,09,25,05,32,8.40
2005,09,25,05,33,8.40
2005,09,25,05,34,8.50
2005,09,25,05,35,8.50
2005,09,25,05,36,8.50
2005,09,25,05,37,8.50
2005,09,25,05,38,8.50
2005,09,25,05,39,8.50
2005,09,25,05,40,8.50
2005,09,25,05,41,8.40
2005,09,25,05,42,8.40
2005,09,25,05,43,8.40
2005,09,25,05,44,8.40
2005,09,25,05,45,8.40
2005,09,25,05,46,8.50
2005,09,25,05,47,8.50
2005,09,25,05,48,8.50
2005,09,25,05,49,8.50
2005,09,25,05,50,8.60
2005,09,25,05,51,8.60
2005,09,25,05,52,8.60
2005,09,25,05,53,8.60
2005,09,25,05,54,8.70
2005,09,25,05,55,8.70
2005,09,25,05,56,8.70
2005,09,25,05,57,8.70
2005,09,25,05,58,8.80
2005,09,25,05,59,8.80
2005,09,25,06,00,8.90
2005,09,25,06,01,8.90
2005,09,25,06,02,9.00
2005,09,25,06,03,9.00
2005,09,25,06,04,9.00
2005,09,25,06,05,9.00
2005,09,25,06,06,9.10
2005,09,25,06,07,9.10
2005,09,25,06,08,9.10
2005,09,25,06,09,9.10
2005,09,25,06,10,9.10
2005,09,25,06,11,9.10
2005,09,25,06,12,9.20
2005,09,25,06,13,9.20
2005,09,25,06,14,9.20
2005,09,25,06,15,9.20
2005,09,25,06,16,9.20
2005,09,25,06,17,9.20
2005,09,25,06,18,9.20
2005,09,25,06,19,9.20
2005,09,25,06,20,9.20
2005,09,25,06,21,9.20
2005,09,25,06,22,9.20
2005,09,25,06,23,9.20
2005,09,25,06,24,9.20
2005,09,25,06,25,9.30
2005,09,25,06,26,9.20
2005,09,25,06,27,9.20
2005,09,25,06,28,9.20
2005,09,25,06,29,9.30
2005,09,25,06,30,9.30
2005,09,25,06,31,9.30
2005,09,25,06,32,9.30
2005,09,25,06,33,9.40
2005,09,25,06,34,9.40
2005,09,25,06,35,9.40
2005,09,25,06,36,9.40
2005,09,25,06,37,9.40
2005,09,25,06,38,9.30
2005,09,25,06,39,9.30
2005,09,25,06,40,9.30
2005,09,25,06,41,9.30
2005,09,25,06,42,9.30
2005,09,25,06,43,9.30
2005,09,25,06,44,9.30
2005,09,25,06,45,9.30
2005,09,25,06,46,9.30
2005,09,25,06,47,9.30
2005,09,25,06,48,9.30
2005,09,25,06,49,9.30
2005,09,25,06,50,9.20
2005,09,25,06,51,9.20
2005,09,25,06,52,9.20
2005,09,25,06,53,9.10
2005,09,25,06,54,9.10
2005,09,25,06,55,9.00
2005,09,25,06,56,9.00
2005,09,25,06,57,9.00
2005,09,25,06,58,8.90
2005,09,25,06,59,8.90
2005,09,25,07,00,8.90
2005,09,25,07,01,8.80
2005,09,25,07,02,8.80
2005,09,25,07,03,8.80
2005,09,25,07,04,8.80
2005,09,25,07,05,8.80
2005,09,25,07,06,8.70
2005,09,25,07,07,8.70
2005,09,25,07,08,8.70
2005,09,25,07,09,8.70
2005,09,25,07,10,8.70
2005,09,25,07,11,8.70
2005,09,25,07,12,8.70
2005,09,25,07,13,8.70
2005,09,25,07,14,8.70
2005,09,25,07,15,8.70
2005,09,25,07,16,8.70
2005,09,25,07,17,8.70
2005,09,25,07,18,8.70
2005,09,25,07,19,8.70
2005,09,25,07,20,8.70
2005,09,25,07,21,8.70
2005,09,25,07,22,8.70
2005,09,25,07,23,8.70
2005,09,25,07,24,8.70
2005,09,25,07,25,8.70
2005,09,25,07,26,8.70
2005,09,25,07,27,8.70
2005,09,25,07,28,8.70
2005,09,25,07,29,8.70
2005,09,25,07,30,8.70
2005,09,25,07,31,8.80
2005,09,25,07,32,8.80
2005,09,25,07,33,8.80
2005,09,25,07,34,8.80
2005,09,25,07,35,8.80
2005,09,25,07,36,8.80
2005,09,25,07,37,8.80
2005,09,25,07,38,8.80
2005,09,25,07,39,8.80
2005,09,25,07,40,8.80
2005,09,25,07,41,8.90
2005,09,25,07,42,8.90
2005,09,25,07,43,8.90
2005,09,25,07,44,8.90
2005,09,25,07,45,9.00
2005,09,25,07,46,9.00
2005,09,25,07,47,9.10
2005,09,25,07,48,9.20
2005,09,25,07,49,9.20
2005,09,25,07,50,9.30
2005,09,25,07,51,9.40
2005,09,25,07,52,9.50
2005,09,25,07,53,9.60
2005,09,25,07,54,9.60
2005,09,25,07,55,9.70
2005,09,25,07,56,9.70
2005,09,25,07,57,9.70
2005,09,25,07,58,9.70
2005,09,25,07,59,9.80
2005,09,25,08,00,9.80
2005,09,25,08,01,9.90
2005,09,25,08,02,9.90
2005,09,25,08,03,10.10
2005,09,25,08,04,10.10
2005,09,25,08,05,10.20
2005,09,25,08,06,10.30
2005,09,25,08,07,10.40
2005,09,25,08,08,10.40
2005,09,25,08,09,10.50
2005,09,25,08,10,10.60
2005,09,25,08,11,10.60
2005,09,25,08,12,10.60
2005,09,25,08,13,10.60
2005,09,25,08,14,10.70
2005,09,25,08,15,10.90
2005,09,25,08,16,10.90
2005,09,25,08,17,10.90
2005,09,25,08,18,10.90
2005,09,25,08,19,10.90
2005,09,25,08,20,11.00
2005,09,25,08,21,11.10
2005,09,25,08,22,11.20
2005,09,25,08,23,11.20
2005,09,25,08,24,11.30
2005,09,25,08,25,11.30
2005,09,25,08,26,11.30
2005,09,25,08,27,11.40
2005,09,25,08,28,11.40
2005,09,25,08,29,11.40
2005,09,25,08,30,11.50
2005,09,25,08,31,11.60
2005,09,25,08,32,11.60
2005,09,25,08,33,11.60
2005,09,25,08,34,11.60
2005,09,25,08,35,11.60
2005,09,25,08,36,11.60
2005,09,25,08,37,11.60
2005,09,25,08,38,11.70
2005,09,25,08,39,11.70
2005,09,25,08,40,11.70
2005,09,25,08,41,11.70
2005,09,25,08,42,11.70
2005,09,25,08,43,11.70
2005,09,25,08,44,11.60
2005,09,25,08,45,11.60
2005,09,25,08,46,11.60
2005,09,25,08,47,11.60
2005,09,25,08,48,11.60
2005,09,25,08,49,11.60
2005,09,25,08,50,11.60
2005,09,25,08,51,11.60
2005,09,25,08,52,11.60
2005,09,25,08,53,11.60
2005,09,25,08,54,11.50
2005,09,25,08,55,11.40
2005,09,25,08,56,11.40
2005,09,25,08,57,11.40
2005,09,25,08,58,11.40
2005,09,25,08,59,11.40
2005,09,25,09,00,11.50
2005,09,25,09,01,11.60
2005,09,25,09,02,11.60
2005,09,25,09,03,11.60
2005,09,25,09,04,11.60
2005,09,25,09,05,11.70
2005,09,25,09,06,11.70
2005,09,25,09,07,11.70
2005,09,25,09,08,11.70
2005,09,25,09,09,11.80
2005,09,25,09,10,11.90
2005,09,25,09,11,11.90
2005,09,25,09,12,12.00
2005,09,25,09,13,12.00
2005,09,25,09,14,12.00
2005,09,25,09,15,12.00
2005,09,25,09,16,12.10
2005,09,25,09,17,12.10
2005,09,25,09,18,12.20
2005,09,25,09,19,12.30
2005,09,25,09,20,12.30
2005,09,25,09,21,12.40
2005,09,25,09,22,12.40
2005,09,25,09,23,12.50
2005,09,25,09,24,12.40
2005,09,25,09,25,12.40
2005,09,25,09,26,12.40
2005,09,25,09,27,12.40
2005,09,25,09,28,12.50
2005,09,25,09,29,12.60
2005,09,25,09,30,12.60
2005,09,25,09,31,12.70
2005,09,25,09,32,12.70
2005,09,25,09,33,12.80
2005,09,25,09,34,12.80
2005,09,25,09,35,12.90
2005,09,25,09,36,13.00
2005,09,25,09,37,13.00
2005,09,25,09,38,13.10
2005,09,25,09,39,13.10
2005,09,25,09,40,13.20
2005,09,25,09,41,13.20
2005,09,25,09,42,13.30
2005,09,25,09,43,13.30
2005,09,25,09,44,13.30
2005,09,25,09,45,13.30
2005,09,25,09,46,13.30
2005,09,25,09,47,13.30
2005,09,25,09,48,13.20
2005,09,25,09,49,13.20
2005,09,25,09,50,13.20
2005,09,25,09,51,13.20
2005,09,25,09,52,13.20
2005,09,25,09,53,13.30
2005,09,25,09,54,13.30
2005,09,25,09,55,13.30
2005,09,25,09,56,13.30
2005,09,25,09,57,13.40
2005,09,25,09,58,13.40
2005,09,25,09,59,13.40
2005,09,25,10,00,13.50
2005,09,25,10,01,13.50
2005,09,25,10,02,13.50
2005,09,25,10,03,13.50
2005,09,25,10,04,13.60
2005,09,25,10,05,13.60
2005,09,25,10,06,13.70
2005,09,25,10,07,13.70
2005,09,25,10,08,13.70
2005,09,25,10,09,13.70
2005,09,25,10,10,13.70
2005,09,25,10,11,13.70
2005,09,25,10,12,13.70
2005,09,25,10,13,13.70
2005,09,25,10,14,13.70
2005,09,25,10,15,13.70
2005,09,25,10,16,13.80
2005,09,25,10,17,13.90
2005,09,25,10,18,13.90
2005,09,25,10,19,13.90
2005,09,25,10,20,13.80
2005,09,25,10,21,13.70
2005,09,25,10,22,13.70
2005,09,25,10,23,13.50
2005,09,25,10,24,13.40
2005,09,25,10,25,13.30
2005,09,25,10,26,13.20
2005,09,25,10,27,13.10
2005,09,25,10,28,13.00
2005,09,25,10,29,13.00
2005,09,25,10,30,12.90
2005,09,25,10,31,12.90
2005,09,25,10,32,12.80
2005,09,25,10,33,12.80
2005,09,25,10,34,12.80
2005,09,25,10,35,12.90
2005,09,25,10,36,12.90
2005,09,25,10,37,12.90
2005,09,25,10,38,12.90
2005,09,25,10,39,13.00
2005,09,25,10,40,13.00
2005,09,25,10,41,13.10
2005,09,25,10,42,13.10
2005,09,25,10,43,13.10
2005,09,25,10,44,13.10
2005,09,25,10,45,13.20
2005,09,25,10,46,13.20
2005,09,25,10,47,13.30
2005,09,25,10,48,13.30
2005,09,25,10,49,13.30
2005,09,25,10,50,13.40
2005,09,25,10,51,13.40
2005,09,25,10,52,13.40
2005,09,25,10,53,13.40
2005,09,25,10,54,13.40
2005,09,25,10,55,13.70
2005,09,25,10,56,13.70
2005,09,25,10,57,13.70
2005,09,25,10,58,13.70
2005,09,25,10,59,13.70
2005,09,25,11,00,13.70
2005,09,25,11,01,13.70
2005,09,25,11,02,13.70
2005,09,25,11,03,13.70
2005,09,25,11,04,13.80
2005,09,25,11,05,13.80
2005,09,25,11,06,13.80
2005,09,25,11,07,13.90
2005,09,25,11,08,13.90
2005,09,25,11,09,13.90
2005,09,25,11,10,13.90
2005,09,25,11,11,13.90
2005,09,25,11,12,13.90
2005,09,25,11,13,13.80
2005,09,25,11,14,13.90
2005,09,25,11,15,13.90
2005,09,25,11,16,14.00
2005,09,25,11,17,14.10
2005,09,25,11,18,14.20
2005,09,25,11,19,14.20
2005,09,25,11,20,14.20
2005,09,25,11,21,14.20
2005,09,25,11,22,14.20
2005,09,25,11,23,14.10
2005,09,25,11,24,14.00
2005,09,25,11,25,13.90
2005,09,25,11,26,13.90
2005,09,25,11,27,13.80
2005,09,25,11,28,13.80
2005,09,25,11,29,13.80
2005,09,25,11,30,13.80
2005,09,25,11,31,13.80
2005,09,25,11,32,13.80
2005,09,25,11,33,13.80
2005,09,25,11,34,13.80
2005,09,25,11,35,13.90
2005,09,25,11,36,13.90
2005,09,25,11,37,14.00
2005,09,25,11,38,14.00
2005,09,25,11,39,14.00
2005,09,25,11,40,14.00
2005,09,25,11,41,14.00
2005,09,25,11,42,14.20
2005,09,25,11,43,14.20
2005,09,25,11,44,14.20
2005,09,25,11,45,14.20
2005,09,25,11,46,14.20
2005,09,25,11,47,14.20
2005,09,25,11,48,14.20
2005,09,25,11,49,14.20
2005,09,25,11,50,14.20
2005,09,25,11,51,14.20
2005,09,25,11,52,14.20
2005,09,25,11,53,14.30
2005,09,25,11,54,14.30
2005,09,25,11,55,14.30
2005,09,25,11,56,14.40
2005,09,25,11,57,14.50
2005,09,25,11,58,14.50
2005,09,25,11,59,14.60
2005,09,25,12,00,14.60
2005,09,25,12,01,14.60
2005,09,25,12,02,14.60
2005,09,25,12,03,14.50
2005,09,25,12,04,14.40
2005,09,25,12,05,14.30
2005,09,25,12,06,14.30
2005,09,25,12,07,14.30
2005,09,25,12,08,14.30
2005,09,25,12,09,14.30
2005,09,25,12,10,14.30
2005,09,25,12,11,14.30
2005,09,25,12,12,14.30
2005,09,25,12,13,14.30
2005,09,25,12,14,14.30
2005,09,25,12,15,14.40
2005,09,25,12,16,14.40
2005,09,25,12,17,14.40
2005,09,25,12,18,14.50
2005,09,25,12,19,14.50
2005,09,25,12,20,14.50
2005,09,25,12,21,14.50
2005,09,25,12,22,14.60
2005,09,25,12,23,14.60
2005,09,25,12,24,14.70
2005,09,25,12,25,14.80
2005,09,25,12,26,14.80
2005,09,25,12,27,14.80
2005,09,25,12,28,14.80
2005,09,25,12,29,14.80
2005,09,25,12,30,14.80
2005,09,25,12,31,14.70
2005,09,25,12,32,14.70
2005,09,25,12,33,14.60
2005,09,25,12,34,14.60
2005,09,25,12,35,14.70
2005,09,25,12,36,14.70
2005,09,25,12,37,14.80
2005,09,25,12,38,14.80
2005,09,25,12,39,14.80
2005,09,25,12,40,14.80
2005,09,25,12,41,14.80
2005,09,25,12,42,14.80
2005,09,25,12,43,14.80
2005,09,25,12,44,14.80
2005,09,25,12,45,14.80
2005,09,25,12,46,14.90
2005,09,25,12,47,14.80
2005,09,25,12,48,14.80
2005,09,25,12,49,14.80
2005,09,25,12,50,14.80
2005,09,25,12,51,14.90
2005,09,25,12,52,15.00
2005,09,25,12,53,15.00
2005,09,25,12,54,15.00
2005,09,25,12,55,15.10
2005,09,25,12,56,15.10
2005,09,25,12,57,15.10
2005,09,25,12,58,15.10
2005,09,25,12,59,15.20
2005,09,25,13,00,15.20
2005,09,25,13,01,15.20
2005,09,25,13,02,15.10
2005,09,25,13,03,15.10
2005,09,25,13,04,15.10
2005,09,25,13,05,15.10
2005,09,25,13,06,15.10
2005,09,25,13,07,15.10
2005,09,25,13,08,15.10
2005,09,25,13,09,15.10
2005,09,25,13,10,15.10
2005,09,25,13,11,15.00
2005,09,25,13,12,15.00
2005,09,25,13,13,15.00
2005,09,25,13,14,15.00
2005,09,25,13,15,15.00
2005,09,25,13,16,15.10
2005,09,25,13,17,15.20
2005,09,25,13,18,15.20
2005,09,25,13,19,15.20
2005,09,25,13,20,15.20
2005,09,25,13,21,15.20
2005,09,25,13,22,15.20
2005,09,25,13,23,15.10
2005,09,25,13,24,15.10
2005,09,25,13,25,15.10
2005,09,25,13,26,15.10
2005,09,25,13,27,15.10
2005,09,25,13,28,15.10
2005,09,25,13,29,15.10
2005,09,25,13,30,15.20
2005,09,25,13,31,15.20
2005,09,25,13,32,15.10
2005,09,25,13,33,15.10
2005,09,25,13,34,15.00
2005,09,25,13,35,15.00
2005,09,25,13,36,15.00
2005,09,25,13,37,15.10
2005,09,25,13,38,15.20
2005,09,25,13,39,15.20
2005,09,25,13,40,15.30
2005,09,25,13,41,15.30
2005,09,25,13,42,15.40
2005,09,25,13,43,15.40
2005,09,25,13,44,15.40
2005,09,25,13,45,15.50
2005,09,25,13,46,15.60
2005,09,25,13,47,15.60
2005,09,25,13,48,15.60
2005,09,25,13,49,15.70
2005,09,25,13,50,15.70
2005,09,25,13,51,15.60
2005,09,25,13,52,15.60
2005,09,25,13,53,15.50
2005,09,25,13,54,15.50
2005,09,25,13,55,15.50
2005,09,25,13,56,15.50
2005,09,25,13,57,15.50
2005,09,25,13,58,15.50
2005,09,25,13,59,15.50
2005,09,25,14,00,15.40
2005,09,25,14,01,15.40
2005,09,25,14,02,15.50
2005,09,25,14,03,15.60
2005,09,25,14,04,15.70
2005,09,25,14,05,15.80
2005,09,25,14,06,15.80
2005,09,25,14,07,15.80
2005,09,25,14,08,15.80
2005,09,25,14,09,15.80
2005,09,25,14,10,15.80
2005,09,25,14,11,15.90
2005,09,25,14,12,16.00
2005,09,25,14,13,16.10
2005,09,25,14,14,16.10
2005,09,25,14,15,16.00
2005,09,25,14,16,15.90
2005,09,25,14,17,15.80
2005,09,25,14,18,15.80
2005,09,25,14,19,15.80
2005,09,25,14,20,15.80
2005,09,25,14,21,15.80
2005,09,25,14,22,15.80
2005,09,25,14,23,15.80
2005,09,25,14,24,15.90
2005,09,25,14,25,16.00
2005,09,25,14,26,16.10
2005,09,25,14,27,16.10
2005,09,25,14,28,16.10
2005,09,25,14,29,15.90
2005,09,25,14,30,15.80
2005,09,25,14,31,15.80
2005,09,25,14,32,15.70
2005,09,25,14,33,15.70
2005,09,25,14,34,15.70
2005,09,25,14,35,15.70
2005,09,25,14,36,15.70
2005,09,25,14,37,15.70
2005,09,25,14,38,15.60
2005,09,25,14,39,15.50
2005,09,25,14,40,15.40
2005,09,25,14,41,15.50
2005,09,25,14,42,15.50
2005,09,25,14,43,15.60
2005,09,25,14,44,15.70
2005,09,25,14,45,15.70
2005,09,25,14,46,15.70
2005,09,25,14,47,15.70
2005,09,25,14,48,15.70
2005,09,25,14,49,15.70
2005,09,25,14,50,15.70
2005,09,25,14,51,16.00
2005,09,25,14,52,16.10
2005,09,25,14,53,16.20
2005,09,25,14,54,16.20
2005,09,25,14,55,16.30
2005,09,25,14,56,16.20
2005,09,25,14,57,16.20
2005,09,25,14,58,16.20
2005,09,25,14,59,16.10
2005,09,25,15,00,16.10
2005,09,25,15,01,16.10
2005,09,25,15,02,16.10
2005,09,25,15,03,16.10
2005,09,25,15,04,16.10
2005,09,25,15,05,16.10
2005,09,25,15,06,16.20
2005,09,25,15,07,16.20
2005,09,25,15,08,16.30
2005,09,25,15,09,16.30
2005,09,25,15,10,16.30
2005,09,25,15,11,16.30
2005,09,25,15,12,16.30
2005,09,25,15,13,16.30
2005,09,25,15,14,16.30
2005,09,25,15,15,16.30
2005,09,25,15,16,16.30
2005,09,25,15,17,16.30
2005,09,25,15,18,16.30
2005,09,25,15,19,16.40
2005,09,25,15,20,16.40
2005,09,25,15,21,16.30
2005,09,25,15,22,16.30
2005,09,25,15,23,16.40
2005,09,25,15,24,16.50
2005,09,25,15,25,16.60
2005,09,25,15,26,16.60
2005,09,25,15,27,16.70
2005,09,25,15,28,16.70
2005,09,25,15,29,16.70
2005,09,25,15,30,16.60
2005,09,25,15,31,16.70
2005,09,25,15,32,16.70
2005,09,25,15,33,16.60
2005,09,25,15,34,16.40
2005,09,25,15,35,16.40
2005,09,25,15,36,16.30
2005,09,25,15,37,16.20
2005,09,25,15,38,16.20
2005,09,25,15,39,16.20
2005,09,25,15,40,16.20
2005,09,25,15,41,16.10
2005,09,25,15,42,15.90
2005,09,25,15,43,15.80
2005,09,25,15,44,15.70
2005,09,25,15,45,15.60
2005,09,25,15,46,15.60
2005,09,25,15,47,15.50
2005,09,25,15,48,15.50
2005,09,25,15,49,15.50
2005,09,25,15,50,15.60
2005,09,25,15,51,15.70
2005,09,25,15,52,15.80
2005,09,25,15,53,15.80
2005,09,25,15,54,15.90
2005,09,25,15,55,15.90
2005,09,25,15,56,15.90
2005,09,25,15,57,16.00
2005,09,25,15,58,16.10
2005,09,25,15,59,16.10
2005,09,25,16,00,16.10
2005,09,25,16,01,16.00
2005,09,25,16,02,15.90
2005,09,25,16,03,15.80
2005,09,25,16,04,15.80
2005,09,25,16,05,15.80
2005,09,25,16,06,15.80
2005,09,25,16,07,15.80
2005,09,25,16,08,15.70
2005,09,25,16,09,15.70
2005,09,25,16,10,15.70
2005,09,25,16,11,15.70
2005,09,25,16,12,15.80
2005,09,25,16,13,15.90
2005,09,25,16,14,15.90
2005,09,25,16,15,15.90
2005,09,25,16,16,15.90
2005,09,25,16,17,15.90
2005,09,25,16,18,15.80
2005,09,25,16,19,15.80
2005,09,25,16,20,15.70
2005,09,25,16,21,15.70
2005,09,25,16,22,15.70
2005,09,25,16,23,15.70
2005,09,25,16,24,15.70
2005,09,25,16,25,15.70
2005,09,25,16,26,15.70
2005,09,25,16,27,15.80
2005,09,25,16,28,15.80
2005,09,25,16,29,15.80
2005,09,25,16,30,15.80
2005,09,25,16,31,15.80
2005,09,25,16,32,15.80
2005,09,25,16,33,15.80
2005,09,25,16,34,15.80
2005,09,25,16,35,15.80
2005,09,25,16,36,15.80
2005,09,25,16,37,15.80
2005,09,25,16,38,15.80
2005,09,25,16,39,15.80
2005,09,25,16,40,15.80
2005,09,25,16,41,15.80
2005,09,25,16,42,15.70
2005,09,25,16,43,15.70
2005,09,25,16,44,15.70
2005,09,25,16,45,15.60
2005,09,25,16,46,15.60
2005,09,25,16,47,15.60
2005,09,25,16,48,15.60
2005,09,25,16,49,15.60
2005,09,25,16,50,15.70
2005,09,25,16,51,15.80
2005,09,25,16,52,15.80
2005,09,25,16,53,15.80
2005,09,25,16,54,15.80
2005,09,25,16,55,15.80
2005,09,25,16,56,15.80
2005,09,25,16,57,15.80
2005,09,25,16,58,15.80
2005,09,25,16,59,15.80
2005,09,25,17,00,15.90
2005,09,25,17,01,15.90
2005,09,25,17,02,15.90
2005,09,25,17,03,15.80
2005,09,25,17,04,15.80
2005,09,25,17,05,15.80
2005,09,25,17,06,15.70
2005,09,25,17,07,15.60
2005,09,25,17,08,15.60
2005,09,25,17,09,15.50
2005,09,25,17,10,15.50
2005,09,25,17,11,15.50
2005,09,25,17,12,15.50
2005,09,25,17,13,15.50
2005,09,25,17,14,15.50
2005,09,25,17,15,15.50
2005,09,25,17,16,15.50
2005,09,25,17,17,15.60
2005,09,25,17,18,15.60
2005,09,25,17,19,15.60
2005,09,25,17,20,15.60
2005,09,25,17,21,15.60
2005,09,25,17,22,15.70
2005,09,25,17,23,15.70
2005,09,25,17,24,15.80
2005,09,25,17,25,15.90
2005,09,25,17,26,15.90
2005,09,25,17,27,15.90
2005,09,25,17,28,15.80
2005,09,25,17,29,15.80
2005,09,25,17,30,15.70
2005,09,25,17,31,15.70
2005,09,25,17,32,15.70
2005,09,25,17,33,15.60
2005,09,25,17,34,15.60
2005,09,25,17,35,15.60
2005,09,25,17,36,15.50
2005,09,25,17,37,15.50
2005,09,25,17,38,15.50